EW7038 Weather Reports


time (UTC)temp
C
wind
direction
speed
KPH
gust
KPH
rain 1hr
cm
rain 24hr
cm
rain mn
cm
humidity
%
barometer
mb
20260503192804 26 354 1.6 4.8 0.00 0.00 0.00 28 1010.8
20260503192305 25 353 3.2 4.8 0.00 0.00 0.00 30 1010.9
20260503191804 25 2 1.6 3.2 0.00 0.00 0.00 30 1011.0
20260503191303 24 8 3.2 4.8 0.00 0.00 0.00 31 1011.1
20260503190804 25 31 1.6 4.8 0.00 0.00 0.00 31 1011.1
20260503185803 24 20 3.2 4.8 0.00 0.00 0.00 34 1011.2
20260503185304 23 3 3.2 4.8 0.00 0.00 0.00 33 1011.3
20260503184304 23 19 1.6 4.8 0.00 0.00 0.00 34 1011.4
20260503183304 23 26 3.2 4.8 0.00 0.00 0.00 34 1011.5
20260503182803 22 49 3.2 4.8 0.00 0.00 0.00 35 1011.6
20260503182305 22 22 3.2 4.8 0.00 0.00 0.00 37 1011.6
20260503181304 22 19 3.2 4.8 0.00 0.00 0.00 39 1011.7
20260503180803 22 22 3.2 4.8 0.00 0.00 0.00 39 1011.7
20260503180303 21 2 3.2 4.8 0.00 0.00 0.00 38 1011.9
20260503175803 21 65 1.6 3.2 0.00 0.00 0.00 41 1012.0
20260503175305 21 18 1.6 4.8 0.00 0.00 0.00 41 1012.0
20260503174804 21 52 3.2 4.8 0.00 0.00 0.00 40 1012.0
20260503174304 20 29 3.2 4.8 0.00 0.00 0.00 44 1012.1
20260503173804 19 35 3.2 4.8 0.00 0.00 0.00 47 1012.2
20260503173304 19 27 3.2 4.8 0.00 0.00 0.00 48 1012.2
20260503172803 18 25 3.2 4.8 0.00 0.00 0.00 49 1012.2
20260503172305 18 17 3.2 4.8 0.00 0.00 0.00 49 1012.3
20260503171803 18 22 3.2 4.8 0.00 0.00 0.00 50 1012.3
20260503171303 18 33 3.2 4.8 0.00 0.00 0.00 50 1012.3
20260503170804 18 21 3.2 4.8 0.00 0.00 0.00 49 1012.3
20260503150803 15 97 1.6 3.2 0.00 0.00 0.00 58 1013.2
20260503150303 15 104 3.2 4.8 0.00 0.00 0.00 59 1013.2
20260503131303 11 144 3.2 4.8 0.00 0.00 0.00 65 1012.9
20260503130804 12 134 3.2 4.8 0.00 0.00 0.00 66 1012.9
20260503130304 11 154 3.2 4.8 0.00 0.00 0.00 67 1012.8
20260503110803 12 154 3.2 4.8 0.00 0.00 0.00 68 1012.7
20260503110303 12 162 3.2 4.8 0.00 0.00 0.00 67 1012.8
20260503090304 13 152 3.2 4.8 0.00 0.00 0.00 70 1012.7
20260503081304 15 138 3.2 3.2 0.00 0.00 0.00 70 1012.4
20260503080804 15 143 3.2 3.2 0.00 0.00 0.00 70 1012.4
20260503080303 15 158 3.2 4.8 0.00 0.00 0.00 70 1012.4
20260503072803 15 149 3.2 4.8 0.00 0.00 0.00 69 1012.6
20260503071805 15 155 3.2 3.2 0.00 0.00 0.00 68 1012.5
20260503071304 16 145 3.2 3.2 0.00 0.00 0.00 67 1012.5
20260503070804 16 148 1.6 3.2 0.00 0.00 0.00 66 1012.5
20260503070304 16 135 1.6 3.2 0.00 0.00 0.00 65 1012.5
20260503060304 18 307 3.2 4.8 0.00 0.00 0.00 58 1012.2
20260503054804 18 289 1.6 9.7 0.00 0.00 0.00 56 1012.2
20260503054304 19 293 6.4 14.5 0.00 0.00 0.00 54 1012.1
20260503053803 18 264 11.3 14.5 0.00 0.00 0.00 55 1012.2
20260503053304 18 262 6.4 11.3 0.00 0.00 0.00 56 1012.2
20260503052804 18 316 4.8 12.9 0.00 0.00 0.00 55 1012.2
20260503052305 19 299 3.2 11.3 0.00 0.00 0.00 55 1012.3
20260503051803 19 294 8.0 12.9 0.00 0.00 0.00 53 1012.2
20260503051304 19 290 8.0 24.1 0.00 0.00 0.00 53 1012.2
20260503050804 19 306 11.3 25.7 0.00 0.00 0.00 53 1012.1
20260503050303 19 272 12.9 25.7 0.00 0.00 0.00 52 1012.0
20260503045305 20 278 11.3 25.7 0.00 0.00 0.00 52 1011.9
20260503044804 20 287 12.9 25.7 0.00 0.00 0.00 52 1011.9
20260503044305 20 277 17.7 29.0 0.00 0.00 0.00 52 1011.9
20260503043804 20 269 17.7 27.4 0.00 0.00 0.00 52 1011.9
20260503043304 19 280 17.7 27.4 0.00 0.00 0.00 52 1011.8
20260503042305 19 283 14.5 27.4 0.00 0.00 0.00 54 1011.9
20260503041803 19 291 16.1 32.2 0.00 0.00 0.00 54 1011.8
20260503041304 19 303 14.5 27.4 0.00 0.00 0.00 53 1011.7
20260503040804 19 288 14.5 27.4 0.00 0.00 0.00 53 1011.8
20260503040303 20 294 11.3 27.4 0.00 0.00 0.00 53 1011.7
20260503035305 19 285 16.1 33.8 0.00 0.00 0.00 52 1011.5
20260503034804 19 277 12.9 25.7 0.00 0.00 0.00 53 1011.4
20260503034303 19 281 14.5 24.1 0.00 0.00 0.00 54 1011.4
20260503033804 19 301 11.3 16.1 0.00 0.00 0.00 53 1011.2
20260503033304 19 286 11.3 20.9 0.00 0.00 0.00 54 1011.0
20260503032803 19 270 16.1 29.0 0.00 0.00 0.00 54 1010.9
20260503032304 19 287 16.1 27.4 0.00 0.00 0.00 54 1010.7
20260503031805 19 289 16.1 24.1 0.00 0.00 0.00 54 1010.6
20260503030803 19 276 11.3 22.5 0.00 0.00 0.00 54 1010.4
20260503030304 19 277 14.5 24.1 0.00 0.00 0.00 53 1010.3
20260503025305 20 274 9.7 20.9 0.00 0.00 0.00 53 1010.2
20260503024804 20 273 9.7 19.3 0.00 0.00 0.00 52 1010.2
20260503024304 20 284 9.7 19.3 0.00 0.00 0.00 51 1010.1
20260503023804 20 294 9.7 16.1 0.00 0.00 0.00 51 1010.1
20260503023304 20 269 9.7 14.5 0.00 0.00 0.00 51 1010.0
20260503022804 20 276 9.7 16.1 0.00 0.00 0.00 51 1010.0
20260503022305 20 269 8.0 19.3 0.00 0.00 0.00 51 1010.0
20260503021804 20 270 9.7 19.3 0.00 0.00 0.00 50 1009.9
20260503021304 20 272 9.7 19.3 0.00 0.00 0.00 50 1009.9
20260503020804 20 282 9.7 20.9 0.00 0.00 0.00 50 1009.8
20260503020303 20 281 9.7 20.9 0.00 0.00 0.00 50 1009.8
20260503015804 20 273 9.7 19.3 0.00 0.00 0.00 50 1009.7
20260503015305 20 289 11.3 19.3 0.00 0.00 0.00 50 1009.7
20260503014803 20 274 9.7 19.3 0.00 0.00 0.00 51 1009.7
20260503014303 20 265 9.7 14.5 0.00 0.00 0.00 50 1009.7
20260503013804 20 287 8.0 12.9 0.00 0.00 0.00 50 1009.7
20260503013303 20 274 8.0 14.5 0.00 0.00 0.00 50 1009.7
20260503012305 21 269 8.0 14.5 0.00 0.00 0.00 48 1009.7
20260503010804 21 286 4.8 11.3 0.00 0.00 0.00 48 1009.7
20260503010304 21 265 4.8 8.0 0.00 0.00 0.00 47 1009.7
20260503005804 21 271 4.8 11.3 0.00 0.00 0.00 46 1009.7
20260503005305 22 271 4.8 11.3 0.00 0.00 0.00 44 1009.7
20260503004804 22 302 3.2 11.3 0.00 0.00 0.00 44 1009.7
20260503004304 22 293 4.8 8.0 0.00 0.00 0.00 42 1009.7
20260503003804 23 283 3.2 4.8 0.00 0.00 0.00 42 1009.7
20260503002305 24 287 3.2 3.2 0.00 0.00 0.00 38 1009.6
20260503001804 23 283 1.6 3.2 0.00 0.00 0.00 42 1009.7
20260503001304 23 307 1.6 3.2 0.00 0.00 0.00 42 1009.6
20260503000804 23 316 1.6 8.0 0.00 0.00 0.00 43 1009.6
20260503000304 23 259 3.2 8.0 0.00 0.00 0.00 43 1009.7
20260502235305 23 318 3.2 4.8 0.00 0.00 0.00 41 1009.7
20260502234304 24 320 1.6 3.2 0.00 0.00 0.00 41 1009.8
20260502233804 24 318 3.2 8.0 0.00 0.00 0.00 39 1009.9
20260502233304 24 275 3.2 4.8 0.00 0.00 0.00 39 1009.9
20260502232304 24 283 3.2 4.8 0.00 0.00 0.00 42 1010.1
20260502231304 22 244 3.2 4.8 0.00 0.00 0.00 44 1010.3
20260502230304 22 258 4.8 8.0 0.00 0.00 0.00 45 1010.4
20260502225804 21 286 3.2 8.0 0.00 0.00 0.00 46 1010.5
20260502225304 21 285 4.8 9.7 0.00 0.00 0.00 46 1010.6
20260502224803 21 269 4.8 11.3 0.00 0.00 0.00 45 1010.6
20260502224304 21 271 4.8 11.3 0.00 0.00 0.00 46 1010.8
20260502223804 21 293 4.8 12.9 0.00 0.00 0.00 46 1010.9
20260502223303 21 295 6.4 12.9 0.00 0.00 0.00 45 1011.0
20260502222803 21 296 4.8 12.9 0.00 0.00 0.00 46 1011.1
20260502222305 21 295 4.8 9.7 0.00 0.00 0.00 46 1011.2
20260502221803 21 329 3.2 11.3 0.00 0.00 0.00 47 1011.3
20260502221304 20 310 6.4 12.9 0.00 0.00 0.00 48 1011.4
20260502220804 19 312 8.0 19.3 0.00 0.00 0.00 49 1011.4
20260502220304 19 298 11.3 22.5 0.00 0.00 0.00 48 1011.5
20260502215305 20 292 8.0 14.5 0.00 0.00 0.00 48 1011.7
20260502214804 20 282 6.4 11.3 0.00 0.00 0.00 48 1011.6
20260502214304 20 329 3.2 8.0 0.00 0.00 0.00 49 1011.7
20260502213804 20 284 3.2 11.3 0.00 0.00 0.00 50 1011.8
20260502213304 20 304 4.8 11.3 0.00 0.00 0.00 50 1012.0
20260502212804 20 333 3.2 9.7 0.00 0.00 0.00 52 1012.0
20260502212305 18 239 6.4 14.5 0.00 0.00 0.00 54 1012.0
20260502211804 18 318 4.8 9.7 0.00 0.00 0.00 55 1012.0
20260502211303 18 270 6.4 9.7 0.00 0.00 0.00 55 1012.1
20260502210804 18 286 4.8 8.0 0.00 0.00 0.00 55 1012.2
20260502205804 17 274 8.0 14.5 0.00 0.00 0.00 55 1012.5
20260502205305 17 297 6.4 12.9 0.00 0.00 0.00 55 1012.5
20260502204304 18 301 3.2 9.7 0.00 0.00 0.00 54 1012.4
20260502203804 18 317 3.2 9.7 0.00 0.00 0.00 52 1012.5
20260502203303 19 320 4.8 11.3 0.00 0.00 0.00 50 1012.6
20260502202804 20 20 3.2 4.8 0.00 0.00 0.00 50 1012.6
20260502202305 19 350 1.6 4.8 0.00 0.00 0.00 52 1012.6
20260502201805 19 7 3.2 8.0 0.00 0.00 0.00 52 1012.6
20260502201303 18 356 3.2 4.8 0.00 0.00 0.00 52 1012.6
20260502200804 18 326 1.6 8.0 0.00 0.00 0.00 53 1012.6
20260502200304 18 327 3.2 8.0 0.00 0.00 0.00 53 1012.6
20260502195804 17 77 3.2 9.7 0.00 0.00 0.00 63 1012.5
20260502195305 16 178 1.6 3.2 0.00 0.00 0.00 64 1012.5
20260502194804 16 158 3.2 3.2 0.00 0.00 0.00 66 1012.7
20260502193804 15 188 4.8 8.0 0.00 0.00 0.00 66 1012.9